User: anonymous
Location: Harbor Island
(32.3990°N, 80.4435°W)
Time: 19:58:20
(UTC-04:00)
Language:

Cosmos 1455 - Orbit

View from above orbital plane
View from above orbital plane
View from above satellite
View from above satellite

Ground track
Ground track

The orbit data is extracted from the following two-line orbital elements,

1 14032U 83037A   14107.92460627  .00006249  00000-0  37458-3 0  5098
2 14032 082.5169 144.7811 0018665 327.1677 089.1258 15.10659721686356
Epoch (UTC): 17 April 2014 22:11:25
Eccentricity: 0.0018665
inclination: 82.5169°
perigee height: 521 km
apogee height: 547 km
right ascension of ascending node: 144.7811°
argument of perigee: 327.1677°
revolutions per day: 15.10659721
mean anomaly at epoch: 89.1258°
orbit number at epoch: 68635

The dashed part of the orbit path shows where the satellite is in the earth's shadow,  

DLR